Location: Burbank
(38.7788°N, 114.0429°W)
Time: 20:42:21
(UTC+00:00)

Vanguard 2 - Pass Details

Date: 10 May 2026
Orbit: 553 x 2894 km, 32.9° (Epoch: 6 June)

Event Time Altitude Azimuth Distance (km) Brightness Sun altitude
Rises 07:10:26 0° 184° (S) 6,379 - -33.3°
Reaches altitude 10° 07:17:35 10° 165° (SSE) 5,616 - -33.5°
Maximum altitude 07:25:46 15° 136° (SE) 5,257 - -33.5°
Exits shadow 07:29:03 14° 124° (ESE) 5,306 11.5 -33.6°
Drops below altitude 10° 07:33:49 10° 107° (ESE) 5,575 11.7 -33.6°
Sets 07:40:41 0° 88° (E) 6,317 12.2 -33.5°
